Wind_Speed
18 16 16 15 14 13 12 12 11 10 8 8 7 6 5 3 3 4 5 7 8 8 8 8 9 9 8 8 8 8 7 7 8 8 8 8 8 8 8 9 9 9 9
18 17 16 15 14 13 12 12 12 10 9 8 8 6 5 3 3 4 5 6 8 9 9 9 10 10 10 10 9 9 9 9 9 9 9 9 9 9 9 10 10 10 11
16 16 15 15 14 14 13 12 12 11 10 9 8 7 5 5 5 6 7 8 9 10 10 9 10 11 11 11 11 11 10 10 10 9 10 10 10 11 10 11 12 12 12
14 14 15 15 14 14 14 14 13 12 11 11 10 8 7 6 6 6 7 9 9 10 10 11 11 11 12 12 12 12 11 11 11 11 11 11 11 12 12 12 12 13 13
14 14 14 13 13 14 14 14 14 13 12 11 10 10 9 7 6 6 7 8 9 10 11 12 13 13 13 14 13 13 12 12 12 12 12 12 13 13 14 14 13 14 14
14 13 13 13 14 14 14 14 14 13 12 11 11 11 10 9 7 6 7 7 8 10 12 12 12 14 15 15 14 14 14 14 14 14 14 13 14 14 14 15 15 15 16
13 14 13 13 13 14 14 13 13 13 12 11 11 12 12 12 9 7 7 7 8 9 10 11 12 13 14 15 15 16 16 16 16 15 15 16 16 16 16 16 17 17 17
14 14 13 12 12 13 13 14 13 13 13 12 12 11 11 11 11 10 8 7 8 9 10 11 13 13 14 14 15 16 16 16 16 16 16 17 17 17 18 18 18 18 18
13 14 14 12 12 13 14 14 13 12 12 13 12 12 11 12 11 11 9 8 8 8 9 10 11 13 14 15 16 17 17 17 17 17 17 18 18 19 19 19 19 19 19
13 14 14 13 13 14 13 13 13 13 12 12 13 13 12 12 12 11 10 8 8 9 10 11 11 12 13 14 15 17 17 18 19 19 19 18 19 19 20 20 21 21 21
13 14 14 13 14 14 13 13 13 13 13 13 13 13 13 13 12 11 10 10 9 9 10 10 11 12 12 13 14 15 16 17 18 19 19 20 20 21 21 21 22 22 22
14 14 14 13 14 14 14 13 13 13 13 14 14 14 14 13 13 12 11 11 11 11 11 11 12 12 13 14 15 16 17 18 19 20 20 21 22 22 22 22 23 24 24
16 15 14 14 14 14 14 13 13 13 13 14 14 14 15 15 14 13 13 13 12 12 11 11 11 12 13 14 16 16 17 18 19 20 21 22 22 23 23 24 24 25 25
15 15 15 15 15 15 15 14 14 14 15 15 16 16 16 16 16 16 15 14 14 14 13 13 12 13 14 15 16 16 17 19 19 20 21 21 22 23 23 24 25 26 26
16 16 17 16 15 16 15 15 15 15 16 16 17 17 17 17 18 17 17 16 16 16 16 16 15 16 16 16 17 17 18 19 20 20 21 22 22 23 23 24 24 26 26
18 18 18 18 17 16 16 16 16 16 16 17 17 18 18 18 18 18 18 19 18 17 17 17 18 18 18 18 18 19 19 20 21 22 22 23 24 24 25 25 26 27 27
19 20 20 19 19 18 17 17 18 17 17 18 18 19 19 19 20 20 20 20 20 19 18 19 19 19 19 19 20 20 21 22 22 22 22 23 23 25 26 26 27 27 28
21 21 20 21 21 20 19 19 20 20 20 21 21 21 21 21 21 21 21 21 20 19 19 19 19 19 19 19 20 21 21 22 22 23 24 24 24 25 26 27 28 29 29
23 23 23 23 22 22 22 22 22 22 23 23 23 23 23 24 23 22 23 22 21 21 21 21 20 20 20 20 21 22 22 23 24 25 26 26 27 27 28 28 28 29 30
27 27 26 26 25 24 24 25 26 25 25 25 25 25 25 25 25 25 25 25 24 23 23 23 23 22 22 23 23 23 24 25 26 26 27 27 28 28 29 29 29 30 31
28 28 28 29 28 27 28 29 28 28 28 27 28 28 28 28 27 27 27 27 26 25 25 25 25 25 25 25 25 25 25 26 27 27 28 29 29 29 30 31 31 31 32
31 31 30 31 32 31 31 32 32 31 31 30 31 30 31 31 31 30 29 28 28 27 27 27 27 27 27 27 27 27 27 27 28 28 28 29 30 30 31 32 33 33 33
34 34 34 34 35 35 35 36 35 35 35 34 34 34 34 34 34 33 32 29 28 29 29 29 29 29 29 30 30 30 30 30 30 30 31 31 32 32 33 33 34 34 34
37 37 37 37 37 38 38 38 39 40 38 37 37 37 36 35 35 35 33 31 30 31 31 31 31 31 32 32 32 32 32 32 32 32 32 33 33 33 34 34 35 35 36
39 40 40 40 40 41 41 42 42 42 41 40 39 38 37 36 35 34 33 32 32 33 33 32 33 33 34 34 35 35 34 34 34 34 34 34 34 35 36 36 37 37 37
41 41 41 41 41 42 42 43 43 43 43 41 40 39 38 37 36 34 34 34 34 35 35 35 36 36 36 36 35 36 36 35 35 35 36 36 36 36 37 37 38 38 38
Wind_Direction
23 22 21 23 23 23 22 23 18 13 12 10 6 1 352 321 281 247 242 232 231 233 236 239 237 238 238 239 242 248 252 256 258 260 260 256 254 261 266 269 274 272 270
18 18 20 20 18 16 18 19 16 14 10 5 2 1 351 329 305 268 260 245 235 238 243 244 240 238 241 242 245 251 256 257 258 260 264 264 259 262 267 271 273 274 271
15 14 14 13 14 13 13 12 11 8 4 4 2 356 337 314 301 279 262 255 248 242 240 240 241 242 244 246 249 253 254 255 257 259 262 261 264 267 270 272 271 273 272
11 11 9 9 9 12 12 10 7 4 1 1 0 355 341 322 308 293 269 259 250 241 242 243 244 245 244 246 248 252 254 255 257 259 262 264 266 267 271 275 274 273 272
7 7 6 6 4 6 7 5 2 0 359 359 356 354 346 330 314 302 283 261 251 247 248 249 248 247 246 247 249 250 251 253 257 261 264 264 265 264 267 271 273 274 275
5 5 2 0 0 0 360 358 358 356 353 352 353 353 349 342 327 312 293 270 257 254 253 251 252 250 248 247 249 250 251 254 259 262 263 265 267 267 267 267 270 273 275
5 3 358 356 356 355 355 355 354 356 352 350 351 351 351 348 344 326 307 284 264 260 262 259 258 255 251 250 250 250 251 255 260 264 266 265 266 268 269 269 271 272 274
358 359 358 357 355 353 353 353 352 352 353 352 350 349 346 343 341 334 316 301 278 271 268 266 261 259 256 253 252 252 254 256 260 263 266 266 266 268 269 270 271 271 272
351 353 355 357 354 352 352 351 351 350 351 352 349 343 342 340 336 333 326 309 298 285 273 271 266 262 260 257 255 255 256 257 261 264 268 268 268 269 269 271 273 273 273
341 345 347 350 350 349 348 349 347 345 345 346 347 344 340 339 336 331 327 322 309 297 281 273 271 266 263 263 261 259 261 260 261 264 266 268 271 273 272 271 272 273 273
329 337 342 343 346 346 345 347 346 343 342 342 343 343 341 339 336 332 326 319 318 310 300 283 275 272 270 270 270 269 268 267 265 265 267 269 271 272 272 273 274 275 276
318 327 333 335 340 342 345 347 348 346 344 342 340 339 340 339 335 332 328 321 314 311 305 296 288 282 279 275 274 274 271 269 269 269 270 271 272 274 274 273 273 275 278
308 316 322 326 331 336 339 340 344 344 342 341 338 336 337 336 332 328 326 322 317 312 309 303 296 288 284 279 276 273 270 270 271 272 273 273 272 273 274 274 275 277 279
300 309 314 318 323 329 332 332 335 339 339 338 335 334 333 333 332 329 326 322 316 312 305 301 297 293 291 286 282 277 273 272 273 275 276 276 275 275 276 276 276 277 278
294 301 307 311 314 320 324 326 327 330 333 334 333 332 330 330 329 327 324 321 316 312 308 301 299 296 292 289 286 281 279 276 275 277 278 279 278 277 278 278 278 278 279
290 295 299 302 306 311 314 317 320 322 324 327 328 329 326 324 325 325 322 318 314 309 306 303 299 297 295 291 288 283 282 281 279 279 280 278 276 277 277 278 278 279 280
285 291 294 297 301 306 307 309 313 313 315 318 320 320 322 320 319 320 318 317 315 310 308 305 303 300 297 294 291 287 285 285 283 283 284 282 282 280 278 279 279 280 280
281 287 289 292 296 301 302 303 305 308 309 311 312 313 316 316 314 314 314 314 314 315 313 308 301 300 298 297 294 290 290 288 286 285 284 283 283 282 281 281 281 282 281
276 280 283 286 288 292 296 297 300 302 304 304 306 308 310 312 310 309 309 309 309 310 311 310 308 304 302 300 297 293 291 290 288 287 286 285 284 284 284 284 283 282 282
275 277 279 281 282 286 290 294 295 296 298 300 302 304 304 306 307 306 305 303 304 305 307 307 307 305 302 300 298 297 294 293 291 290 288 287 286 286 286 286 286 285 284
272 273 276 277 277 281 285 290 291 291 294 295 297 298 299 300 301 301 301 299 299 299 300 301 302 302 300 299 298 296 294 293 292 291 290 289 288 287 287 288 287 287 286
267 269 272 276 277 279 282 284 287 288 291 293 293 293 296 297 297 297 298 297 296 296 297 297 299 299 298 298 298 297 295 294 294 292 291 290 289 288 287 288 288 287 287
266 268 269 273 276 279 281 283 286 289 289 292 292 293 293 295 295 293 293 293 294 294 295 296 298 297 297 296 296 296 295 295 294 292 291 290 289 288 289 288 288 288 288
265 266 268 271 273 275 278 280 285 288 288 289 290 291 292 293 293 291 290 291 292 293 292 294 295 296 297 296 295 294 293 293 292 291 291 290 289 289 288 287 288 288 288
263 265 267 268 269 271 276 280 284 286 286 288 290 292 291 295 295 293 291 291 293 293 291 292 293 294 295 295 294 292 291 292 291 290 290 290 290 289 289 288 288 288 288
263 264 266 266 267 269 274 279 282 285 286 288 290 291 291 291 293 292 291 291 292 292 291 293 294 294 294 293 293 293 291 291 292 291 290 290 290 289 289 288 288 288 288
Height
5917 5915 5913 5911 5909 5907 5905 5902 5901 5899 5898 5897 5896 5895 5894 5894 5894 5894 5895 5895 5896 5897 5899 5900 5901 5902 5903 5904 5905 5905 5906 5906 5907 5907 5907 5908 5908 5908 5909 5909 5909 5909 5909
5918 5916 5914 5912 5910 5908 5906 5903 5901 5900 5898 5897 5896 5895 5894 5894 5893 5893 5894 5894 5895 5896 5897 5898 5899 5900 5902 5902 5903 5904 5904 5905 5905 5906 5906 5906 5907 5907 5907 5907 5907 5907 5907
5919 5917 5915 5913 5911 5909 5906 5904 5902 5900 5898 5897 5896 5895 5893 5893 5892 5892 5893 5893 5893 5894 5895 5896 5897 5898 5899 5900 5901 5902 5902 5903 5903 5904 5904 5904 5904 5905 5905 5905 5904 5904 5904
5920 5917 5915 5914 5911 5909 5907 5905 5903 5901 5898 5897 5895 5894 5893 5892 5891 5891 5891 5891 5891 5892 5893 5894 5895 5896 5897 5898 5899 5899 5900 5900 5901 5901 5901 5902 5902 5902 5902 5902 5902 5901 5901
5920 5918 5916 5914 5912 5909 5907 5905 5903 5901 5899 5897 5895 5893 5892 5891 5890 5889 5889 5889 5889 5890 5891 5891 5892 5893 5894 5895 5896 5897 5897 5898 5898 5898 5899 5899 5899 5899 5900 5899 5899 5899 5898
5920 5918 5915 5914 5911 5909 5907 5905 5903 5901 5899 5897 5895 5893 5891 5890 5889 5888 5888 5887 5887 5888 5888 5889 5889 5890 5891 5892 5893 5893 5894 5895 5895 5895 5896 5896 5896 5896 5896 5896 5896 5895 5895
5920 5918 5915 5913 5911 5909 5907 5905 5903 5901 5899 5897 5895 5893 5892 5890 5888 5887 5886 5886 5886 5886 5886 5886 5887 5887 5888 5888 5889 5890 5891 5891 5892 5892 5892 5892 5893 5893 5893 5892 5892 5892 5891
5920 5917 5915 5913 5911 5909 5907 5905 5903 5901 5899 5897 5895 5893 5891 5890 5888 5886 5885 5884 5884 5884 5884 5884 5884 5884 5885 5885 5886 5887 5887 5888 5888 5888 5888 5888 5888 5888 5888 5888 5888 5888 5888
5919 5917 5914 5912 5911 5909 5907 5905 5903 5900 5898 5896 5894 5893 5891 5889 5887 5885 5884 5883 5882 5882 5881 5881 5881 5881 5881 5882 5882 5883 5883 5884 5884 5884 5884 5884 5884 5884 5884 5884 5884 5884 5883
5918 5916 5914 5912 5910 5908 5906 5904 5902 5900 5898 5896 5894 5892 5890 5888 5887 5885 5883 5882 5881 5880 5879 5879 5878 5878 5878 5878 5878 5879 5879 5879 5880 5880 5880 5880 5880 5879 5879 5879 5879 5878 5878
5916 5915 5913 5911 5909 5908 5905 5903 5901 5899 5897 5895 5893 5891 5889 5887 5886 5884 5882 5881 5879 5878 5877 5877 5876 5875 5875 5875 5875 5875 5875 5875 5875 5875 5875 5875 5875 5875 5874 5874 5873 5873 5872
5914 5913 5911 5910 5908 5906 5904 5902 5900 5898 5896 5894 5892 5890 5888 5886 5884 5882 5881 5879 5878 5876 5875 5874 5873 5872 5872 5871 5871 5871 5871 5870 5870 5870 5870 5870 5869 5869 5869 5868 5868 5867 5866
5912 5911 5909 5908 5907 5905 5903 5901 5899 5897 5895 5893 5891 5889 5887 5885 5883 5881 5879 5877 5875 5874 5872 5871 5870 5869 5868 5867 5867 5866 5866 5866 5865 5865 5865 5864 5864 5863 5863 5862 5862 5861 5860
5909 5908 5907 5906 5904 5903 5901 5899 5897 5896 5894 5892 5890 5888 5886 5883 5881 5879 5877 5875 5873 5871 5870 5868 5867 5865 5864 5863 5862 5861 5861 5861 5860 5860 5859 5859 5858 5857 5857 5856 5855 5855 5854
5905 5905 5904 5903 5901 5900 5899 5897 5895 5894 5892 5890 5888 5886 5883 5881 5879 5876 5874 5872 5870 5868 5867 5865 5863 5862 5860 5859 5858 5857 5856 5856 5855 5855 5854 5853 5852 5851 5851 5850 5849 5848 5847
5901 5901 5900 5899 5898 5897 5896 5894 5893 5891 5889 5887 5885 5883 5880 5878 5876 5873 5871 5869 5867 5864 5863 5861 5859 5857 5856 5854 5853 5852 5851 5851 5850 5849 5848 5846 5846 5845 5844 5843 5842 5841 5840
5897 5897 5896 5895 5895 5894 5892 5891 5890 5888 5886 5884 5882 5879 5877 5874 5872 5870 5868 5865 5863 5860 5858 5857 5855 5853 5851 5849 5848 5847 5846 5845 5844 5843 5842 5840 5840 5839 5837 5836 5835 5834 5833
5892 5892 5891 5891 5890 5889 5888 5887 5886 5884 5882 5880 5878 5875 5873 5871 5868 5866 5864 5861 5859 5857 5854 5852 5850 5848 5846 5845 5843 5842 5841 5840 5838 5837 5836 5835 5833 5832 5830 5829 5828 5827 5825
5886 5886 5886 5886 5885 5884 5883 5882 5880 5879 5877 5875 5873 5871 5869 5866 5863 5861 5859 5857 5855 5853 5850 5848 5845 5843 5841 5840 5838 5836 5835 5834 5832 5831 5830 5828 5827 5825 5824 5822 5821 5819 5817
5879 5880 5880 5879 5879 5878 5877 5876 5874 5873 5871 5869 5867 5865 5863 5861 5858 5856 5854 5852 5850 5847 5845 5843 5841 5839 5837 5835 5833 5831 5829 5827 5826 5824 5823 5821 5819 5818 5816 5814 5813 5811 5809
5872 5873 5873 5872 5872 5871 5870 5869 5867 5866 5864 5862 5860 5858 5856 5854 5852 5850 5847 5845 5843 5841 5839 5837 5835 5833 5831 5829 5827 5825 5823 5821 5819 5817 5815 5814 5812 5810 5808 5806 5805 5803 5801
5864 5864 5865 5865 5863 5862 5861 5861 5859 5858 5856 5854 5852 5850 5848 5847 5844 5842 5840 5837 5836 5834 5832 5831 5829 5827 5824 5822 5820 5818 5816 5814 5812 5810 5807 5806 5803 5802 5800 5798 5796 5794 5792
5855 5856 5856 5856 5855 5854 5853 5852 5851 5849 5848 5846 5844 5841 5839 5838 5836 5834 5832 5829 5828 5826 5825 5823 5821 5819 5817 5815 5812 5810 5808 5805 5803 5801 5799 5797 5795 5793 5791 5789 5786 5784 5782
5845 5846 5847 5847 5846 5845 5844 5843 5842 5841 5838 5836 5835 5833 5831 5828 5826 5824 5822 5821 5819 5818 5816 5815 5813 5811 5809 5806 5804 5802 5799 5797 5794 5792 5790 5788 5785 5783 5781 5779 5776 5774 5772
5834 5835 5835 5835 5835 5835 5834 5833 5831 5830 5828 5826 5825 5823 5821 5819 5817 5815 5813 5812 5811 5809 5808 5806 5804 5802 5800 5797 5795 5792 5790 5788 5785 5783 5780 5778 5776 5773 5771 5768 5766 5763 5761
5823 5823 5824 5823 5823 5823 5823 5823 5821 5820 5818 5816 5815 5813 5811 5809 5807 5806 5804 5803 5801 5800 5798 5796 5794 5792 5790 5787 5785 5783 5780 5778 5775 5773 5770 5768 5765 5763 5760 5758 5755 5753 5750